Regional Weather Roundup
Issued by NWS Grand Forks, ND

Home | Current Version | Previous Version | Graphics & Text | Print | Product List | Glossary On
Versions: 1 2 3 4 5 6 7 8 9 10 11 12 13 14 15 16 17 18 19 20 21 22 23 24 25 26 27 28 29 30 31 32 33 34 35 36 37 38 39 40 41 42 43 44 45 46 47 48 49 50
000
ASUS43 KFGF 271031
RWRFGF
PRAIRIE TO PINES  WEATHER ROUNDUP
NATIONAL WEATHER SERVICE EASTERN NORTH DAKOTA/GRAND FORKS ND
400 AM CST MON FEB 27 2017

 **SATELLITE DATA USED TO AUGMENT SKY COVER AT AUTOMATED STATIONS**
 *****  WEATHER ACROSS EASTERN NORTH DAKOTA  *****

CITY           SKY/WX    TMP DP  RH WIND       PRES   REMARKS
GRAND FORKS    FAIR      12   4  70 S9        29.90F WCI   0
GRAND FRKS AFB FAIR      11   5  78 SW7       29.89F WCI   0
DEVILS LAKE    FAIR      11   8  88 SW8       29.84F WCI  -1
FARGO          CLOUDY    21  16  81 SE3       29.90F
WAHPETON ARPT    N/A     19  14  79 E5        29.90F WCI  13
$$

 ***** WEATHER ACROSS CENTRAL AND WESTERN NORTH DAKOTA  *****

CITY           SKY/WX    TMP DP  RH WIND       PRES   REMARKS
BISMARCK       FAIR       9   6  88 E3        29.84F
MINOT            N/A     15  10  80 W9        29.80S WCI   3
JAMESTOWN      CLOUDY    20  17  88 CALM      29.85S
MINOT AFB      FAIR      12   9  85 NW9       29.80F WCI   0
GARRISON         N/A      7   4  87 CALM      29.80F
WILLISTON      CLOUDY    13   8  81 N8        29.80F WCI   2
DICKINSON      CLOUDY    17  14  88 SE5       29.72F WCI  10
HETTINGER      CLOUDY    20  16  84 SE7       29.75F WCI  11
$$

 *****  OTHER AIRPORT OBSERVATIONS IN OUR AREA  *****

CITY           SKY/WX    TMP DP  RH WIND       PRES   REMARKS
WALHALLA       NOT AVBL
GRAFTON AIRPOR FAIR       9   5  85 S8        29.91R WCI  -4
VALLEY CITY AR CLOUDY    19  19 100 S3        29.89R
CANDO          NOT AVBL
CAVALIER APRT    N/A     14   9  79 W6        29.86S WCI   5
GWINNER        CLOUDY    23  19  86 NE6       29.87S WCI  16
ROLLA          FAIR       9   7  92 W9        29.79R WCI  -5
 ***** THE ABOVE OBSERVATIONS ARE NON NWS ARE NOT QUALITY
       CONTROLLED AND MAY MIS-REPORT RAIN FOR SNOW...
$$

  *****  WEATHER ACROSS NORTHERN MINNESOTA  *****

CITY           SKY/WX    TMP DP  RH WIND       PRES   REMARKS
FLAG ISLAND    FAIR       7   3  85 S3        29.85S
WARROAD        FAIR       9   3  78 S7        29.87S WCI  -3
ROSEAU         CLOUDY     5   1  85 S8        29.87F WCI  -8
HALLOCK        CLOUDY    12   9  85 S8        29.87S WCI   1
THF RVR FALLS    N/A    N/A N/A N/A MISG        N/A
BAUDETTE       FAIR       5   1  83 S6        29.88R WCI  -6
WASKISH        FAIR       7   3  85 S3        29.90S
CROOKSTON      FAIR      12  10  92 S6        29.92S WCI   3
STEPHEN NDAWN    N/A     10   7  85 S8          N/A  WCI  -1
GREENBUSH NDAW   N/A     10   7  85 S9          N/A  WCI  -2
$$
  *****  WEATHER ACROSS CENTRAL AND WEST MINNESOTA  *****

CITY           SKY/WX    TMP DP  RH WIND       PRES   REMARKS
FOSSTON        FAIR       9   5  85 SE5       29.89F WCI   0
BEMIDJI        FAIR       0  -4  82 CALM      29.89F
PARK RAPIDS    CLOUDY    18   9  68 E3        29.88F
ELBOW LAKE     CLOUDY    18  15  88 E3        29.88F
WADENA         CLOUDY    16  10  79 NE3       29.89R
DETROIT LAKES  FAIR      19  14  79 CALM      29.89S
MOORHEAD       CLOUDY    19  12  73 CALM      29.92S
FERGUS FALLS   CLOUDY    18  12  79 W5        29.94S WCI  11
MORRIS MN      FAIR      21  18  86 E8        29.86F WCI  12
STAPLES        CLOUDY    16  10  79 CALM      29.89F
$$
  *****  WEATHER ELSEWHERE ACROSS MINNESOTA  *****

CITY           SKY/WX    TMP DP  RH WIND       PRES   REMARKS
DULUTH         CLOUDY    16   6  65 CALM      29.92S
INTRNTL FALLS  FAIR       2  -2  83 CALM      29.90R
ELY            FAIR      -8 -11  84 CALM      29.92S
CLOQUET        CLOUDY    14   7  73 CALM      29.92S
WHEATON        FAIR      19  18  93 N3        29.90F
BRAINERD       CLOUDY    18  12  77 CALM      29.92S
HIBBING        CLOUDY     2  -3  80 CALM      29.92S
ALEXANDRIA     MOCLDY    21  18  88 E7        29.87F WCI  12
SAINT CLOUD    CLOUDY    24  18  77 E3        29.91S
MINNEAPOLIS    CLOUDY    25  20  81 S5        29.94F WCI  19
$$

  *****  WEATHER ACROSS SOUTH DAKOTA  *****

CITY           SKY/WX    TMP DP  RH WIND       PRES   REMARKS
SIOUX FALLS    FAIR      26  20  77 SW7       29.89F WCI  18
BROOKINGS      FAIR      23  19  85 SE3       29.85F
WATERTOWN      FAIR      23  19  85 S7        29.83S WCI  15
HURON          FAIR      20  17  88 SE5       29.85S WCI  13
SISSETON         N/A     20  19  96 CALM      29.87S
ABERDEEN       MOCLDY    22  18  85 N7        29.85S WCI  13
MITCHELL       FAIR      23  17  78 S6        29.87F WCI  16
PIERRE         FAIR      21  15  78 CALM      29.79F
MOBRIDGE       MOCLDY    24  18  77 NE3       29.78F
RAPID CITY     FAIR      26  14  60 S8        29.68F WCI  18
$$

  *****  SOME WEATHER IN NEARBY STATES *****

CITY           SKY/WX    TMP DP  RH WIND       PRES   REMARKS
GLASGOW MT     LGT SNOW  16  12  84 NE8       29.77S FOG     WCI   5
GREAT FALLS MT LGT SNOW  13  10  88 NE7       29.66F FOG     WCI   3
CHEYENNE WY    FAIR       8   2  76 CALM      29.66F
SCOTTSBLUFF NE FAIR      17   8  67 E8        29.74F WCI   7
OMAHA NE       FAIR      26  19  74 E3        29.98F
DES MOINES IA  FAIR      28  21  75 CALM      30.01S
DAVENPORT IA   FAIR      26  21  81 SE6       30.06S WCI  19
CHICAGO IL     FAIR      27  22  81 S3        30.10R
EAU CLAIRE WI  FAIR      23  19  85 S6        29.98S WCI  16
LA CROSSE WI   FAIR      26  23  88 SE7       30.03S WCI  18
$$

  *****  SOME NATIONAL WEATHER *****

CITY           SKY/WX    TMP DP  RH WIND       PRES   REMARKS
LA GUARDIA NY  FAIR      38  19  46 SW8       30.35R
RALEIGH NC     FAIR      38  22  52 CALM      30.35R
ATLANTA GA     MOCLDY    50  25  37 E5        30.21S
NEW ORLEANS LA MOCLDY    66  62  87 SE9       30.04S
OKLAHOMA CITY  FAIR      43  37  79 SE7       29.90F
ALBUQUERQUE NM FAIR      31  23  72 S3        29.94R
SALT LAKE CITY CLOUDY    40  22  48 SW10G26   29.62R
LOS ANGELES CA FAIR      48  44  86 E6        29.95F
BOISE ID       CLOUDY    30  23  75 SW10      29.65R WCI  21
SEATTLE WA     CLOUDY    37  35  92 S5        29.76S
$$

*** WEATHER ACROSS MANITOBA...SASKATCHEWAN AND ONTARIO ***
                ***ONTARIO***

CITY           SKY/WX    TMP DP  RH WIND       PRES   REMARKS
GERALDTON      CLEAR     -2  -8  78 SW5       29.90R WCI -12
THUNDER BAY    CLEAR      1  -2  85 VRB2      29.99R
SIOUX LOOKOUT  LGT SNOW   9   3  78 S3        29.82S
TORONTO        PTCLDY    36  21  55 SW12G17   30.06R
BIG TROUT LK   CLEAR    -15 -18  84 SW3       29.78R
PICKLE LAKE    NOT AVBL
DRYDEN         FLURRIES   9   5  85 SW8       29.81S WCI  -4
KENORA         FLURRIES   9   5  85 S7        29.82R WCI  -3
$$
                *** MANITOBA***

CITY           SKY/WX    TMP DP  RH WIND       PRES   REMARKS
BRANDON        MOCLDY     5   1  85 SW10      29.78S WCI -10
DAUPHIN        LGT SNOW   7   3  85 NE13      29.83R WCI  -9
ISLAND LAKE    PTCLDY   -18 -24  76 CALM      29.80S
PILOT MOUND      N/A      1  -2  85 S6          N/A  WCI -10
THE PAS        PTCLDY   -15 -20  76 CALM      29.85F
THOMPSON       CRYSTALS -29 -35  75 W3        29.82
WINNIPEG       PTCLDY     9   5  85 SW6       29.83F WCI  -1
LYNN LAKE      FLURRIES -27 -33  75 W7        29.78S WCI -46
CHURCHILL      CRYSTALS -29 -36  68 W8        29.78R WCI -50
GILLAM         CLEAR    -24 -31  69 W6        29.81R WCI -40
$$
                ***SASKATCHEWAN***

CITY           SKY/WX    TMP DP  RH WIND       PRES   REMARKS
ESTEVAN        MOCLDY     1  -2  85 W8        29.81F WCI -12
KINDERSLEY     CLEAR     -4  -8  84 S5        29.78F WCI -15
LLOYDMINSTER   CLEAR     -4  -8  84 SW9       29.72F WCI -20
PRINCE ALBERT  CRYSTALS  -9 -13  84 CALM      29.83F
REGINA         MOCLDY     1  -2  85 NW9       29.83S WCI -14
YORKTON        CLEAR     -4  -8  84 W6        29.80S WCI -16
N. BATTLEFORD  PTCLDY    -8 -13  77 S3        29.83F
LA RONGE       MOCLDY   -11 -15  84 SW2       29.81F
SASKATOON      CLEAR     -8 -13  77 W6        29.85F WCI -21
SWIFT CURRENT  CLEAR      0  -4  85 W3        29.75F
$$
NOTE: THESE ARE AUTOMATED STATIONS WITH LIMITED QUALITY CONTROL
      "FAIR" INDICATES FEW OR NO CLOUDS BELOW 12,000 FEET WITH NO
      SIGNIFICANT WEATHER AND/OR OBSTRUCTIONS TO VISIBILITY.
      SKY/WX - SKY CONDITION AND SIGNIFICANT WEATHER.
      TMP - AIR TEMPERATURE.    DP   - DEWPOINT TEMPERATURE.
      RH  - RELATIVE HUMIDITY.  PRES - PRESSURE.
      HX  - HEAT INDEX.         WCI  - WIND CHILL INDEX.
$



USA.gov is the U.S. government's official web portal to all federal, state and local government web resources and services.